COSMOS 1670 DEB, 44569

Orbit data source: Space-Track

COSMOS 1670 DEB, 44569 is space debris in LEO originally from a launch on Thu, 01 Aug 1985 UTC launched from the Tyuratam Missile And Space Complex (TTMTR). Debris objects in space refer to the collection of defunct objects orbiting the Earth. Examples of debris include non-operational satellites, rocket bodies, and fragments generated from explosions, collisions, or faulty payload assembly.

Loading next visibility...
Identifier
44569, 1985-064F
Orbit
LEO
Country
Flag of CISCIS
Related business
Manufacturer
Unknown
Mission
Spacecraft
Bus & Motor
Unknown
Mass
Unknown
Launch date (UTC)
1985-08-01 (40 years ago)
Launch vehicle
Unknown
Launch site
Tyuratam Missile And Space Complex (TTMTR)
Object type
Payload
Rocket body
Debris
Shape & HBR
Unknown
Radar Cross Section
Small (<0.1 m²)

Expand to show TLE details & history
Last TLE update: 2 days ago

TLE from 2 days ago
0 COSMOS 1670 DEB
1 44569U 85064F   25258.24337840  .00061892  00000-0  16421-1 0  9995
2 44569  64.9048  69.7570 0017660 142.7069  36.7049 14.48123213 66060
Epoch: 2025-09-15T05:50Z
TLE epoch observation values (Epoch: 2025-09-15T05:50:27.893Z)
Latitude
0.32605°
Longitude
167.53807°
Altitude
723.663 km
Speed
7.499 km/s
True Right ascension
16h 38m 25s
True Declination
0° 19' 27"
Sunlit
Object was in daylight at epoch
Visualization orbit readout
Latitude
Unknown
Longitude
Unknown
Altitude
Unknown
Speed
Unknown
Apparent Right ascension
Unknown
Apparent Declination
Unknown
Sunlit
N/A
Visualization observer readout
Local Sidereal Time
13:49:16
Azimuth
Unknown
Elevation
Unknown
Doppler factor
Unknown
Orbital elements
Apogee altitude
742.917 km
Perigee altitude
717.81 km
Semi-major axis
7,108.501 km
Eccentricity
0.00177
Inclination
64.9048°
RAAN
69.757°
Arg. of periapsis
142.7069°
True anomaly
36.82607°
Mean anomaly
36.7049°
Eccentric anomaly
36.76546°
Mean motion
3.6214 °/min
Orbital period
99.41 mins
BSTAR
0.016421
Loading maneuver chart data...
Computing Atmospheric mass density...
Loading historical data...
Loading historical data...
Loading historical data...
Loading historical data...
Loading historical data...
Loading historical data...
Loading historical data...

Documentation

Showing up to 5 results
|